Regional Weather Roundup
Issued by NWS Northern Indiana

Home | Current Version | Previous Version | Graphics & Text | Print | Product List | Glossary Off
Versions: 1 2 3 4 5 6 7 8 9 10 11 12 13 14 15 16 17 18 19 20 21 22 23 24 25 26 27 28 29 30 31 32 33 34 35 36 37 38 39 40 41 42 43 44 45 46 47 48 49 50

000
ASUS43 KIWX 242210
RWRIWX

KIWX WEATHER ROUNDUP
NATIONAL WEATHER SERVICE NORTHERN INDIANA
600 PM EDT THU APR 24 2014

NOTE: "FAIR" INDICATES FEW OR NO CLOUDS BELOW 12,000 FEET WITH NO
SIGNIFICANT WEATHER AND/OR OBSTRUCTIONS TO VISIBILITY.

* THESE STATIONS ARE NOT UNDER NWS QUALITY CONTROL. THEY ALSO MAY NOT
  REPORT WEATHER SUCH AS PRECIPITATION OR FOG.

INZ001>027-242300-
NORTHERN INDIANA

CITY           SKY/WX    TMP DP  RH WIND       PRES   REMARKS
GARY*          CLOUDY    63  27  25 SE17G33   29.76F
VALPARAISO     CLOUDY    61  23  23 SE17G25   29.80F
MICHIGAN CITY* CLOUDY    61  19  20 SE15G22   29.80F
LAPORTE*       CLOUDY    60  22  23 SE15G22   29.82F
SOUTH BEND     CLOUDY    59  23  25 SE23G33   29.85F
ELKHART*       SUNNY     57  25  28 SE13G23   29.87F
GOSHEN         CLOUDY    59  25  27 SE18G28   29.87F
MONTICELLO*    CLOUDY    62  31  31 SE12G17   29.81F
LOGANSPORT*    CLOUDY    61  27  27 SE17      29.85F
ROCHESTER*     CLOUDY    63  23  22 SE16G25   29.85F
WARSAW*        CLOUDY    59  27  29 SE12G23   29.87F
ANGOLA*        PTSUNNY   54  28  37 E17       29.91F
FORT WAYNE     CLOUDY    59  22  24 E15       29.91F
HUNTINGTON*    FAIR      60  22  23 SE14G20   29.88F
PERU/GRISSOM   CLOUDY    62  29  28 SE17      29.84F
MARION*        CLOUDY    61  21  21 SE20G25   29.87F

$$
INZ028>050-242300-
CENTRAL INDIANA

CITY           SKY/WX    TMP DP  RH WIND       PRES   REMARKS
LAFAYETTE      CLOUDY    64  35  34 SE16G24   29.78F
KOKOMO*        CLOUDY    63  28  27 SE16      29.85F
MUNCIE*        PTSUNNY   62  24  23 E14G22    29.87F
INDIANAPOLIS   PTSUNNY   65  37  35 SE15      29.81F

$$
MIZ043>046-050>051-056>058-064>065-071>073-077>080-242300-
SOUTHWEST LOWER MICHIGAN

CITY           SKY/WX    TMP DP  RH WIND       PRES   REMARKS
BATTLE CREEK   CLOUDY    55  20  25 SE21G29   29.90F
BENTON HARBOR  CLOUDY    59  25  27 SE21G32   29.82F
COLDWATER*     CLOUDY    53  19  26 E18       29.90F
HILLSDALE*     CLOUDY    53  22  30 E14       29.96F
HOLLAND        CLOUDY    59  23  25 SE21G30   29.84F
GRAND RAPIDS   CLOUDY    57  26  30 E23G29    29.89F
KALAMAZOO      LGT RAIN  55  24  30 SE12G22   29.88F
STURGIS*       CLOUDY    55  25  30 SE16      29.88F
THREE RIVERS*  FAIR      57  22  25 SE16G23   29.89F

$$
OHZ001>008-015>018-024>025-242300-
NORTHWEST OHIO

CITY           SKY/WX    TMP DP  RH WIND       PRES   REMARKS
WAUSEON*       FAIR      54  28  37 E14       29.98F
DEFIANCE       CLOUDY    56  23  27 E13       29.95F
FINDLAY        CLOUDY    58  24  27 E10       29.96F
TOLEDO EXPRESS CLOUDY    51  23  33 E14       30.00F
TOLEDO METCALF CLOUDY    50  21  32 E12       30.02F
LIMA           CLOUDY    58  25  28 E12       29.93F

$$
&&



USA.gov is the U.S. government's official web portal to all federal, state and local government web resources and services.